Precipitable_Water
0.27 0.19 0.18 0.17 0.19 0.22 0.23 0.23 0.23 0.23 0.21 0.20 0.19 0.18 0.16 0.15 0.14 0.15 0.16 0.18 0.20 0.17 0.15 0.16 0.17 0.17 0.18 0.19 0.20 0.21 0.33 0.40 0.42 0.47 0.50 0.52 0.55 0.58 0.62 0.67 0.72 0.75 0.78 0.92 0.97 1.02 1.07 1.15 1.12 1.06 0.99 0.88 0.85 0.76 0.82 1.00 1.04 1.12 1.25 1.32 1.31 1.37 1.41 1.40 1.36 1.32 1.30 1.24 1.23 1.22 1.17 1.14 1.20 1.23 1.24 1.23 1.23 1.22 1.19 1.18 1.18 1.18 1.17 1.15 1.12 1.09
0.25 0.19 0.17 0.20 0.23 0.24 0.24 0.25 0.24 0.23 0.22 0.20 0.19 0.18 0.16 0.17 0.14 0.16 0.16 0.18 0.20 0.17 0.15 0.18 0.18 0.18 0.18 0.19 0.20 0.22 0.26 0.30 0.32 0.38 0.42 0.46 0.51 0.54 0.59 0.66 0.70 0.72 0.84 0.90 0.91 0.99 1.07 1.13 1.09 1.05 0.98 0.90 0.85 0.94 1.01 1.04 1.17 1.22 1.29 1.30 1.31 1.35 1.38 1.39 1.36 1.31 1.30 1.28 1.19 1.12 1.11 1.15 1.19 1.18 1.14 1.11 1.14 1.16 1.18 1.19 1.19 1.18 1.16 1.15 1.15 1.13
0.19 0.16 0.19 0.24 0.26 0.26 0.26 0.25 0.25 0.22 0.20 0.20 0.18 0.18 0.17 0.16 0.17 0.19 0.17 0.19 0.21 0.18 0.15 0.18 0.16 0.16 0.18 0.19 0.21 0.21 0.23 0.26 0.29 0.31 0.33 0.37 0.45 0.52 0.60 0.68 0.69 0.69 0.71 0.78 0.84 0.92 1.01 1.06 1.02 1.01 1.01 0.96 0.95 0.98 1.03 1.13 1.21 1.25 1.28 1.31 1.33 1.34 1.34 1.36 1.35 1.32 1.29 1.29 1.24 1.18 1.18 1.19 1.16 1.22 1.18 1.16 1.17 1.19 1.18 1.19 1.20 1.19 1.18 1.17 1.16 1.16
0.16 0.18 0.22 0.25 0.27 0.25 0.24 0.23 0.23 0.22 0.21 0.19 0.18 0.16 0.14 0.17 0.15 0.13 0.17 0.18 0.18 0.17 0.15 0.16 0.17 0.17 0.19 0.20 0.21 0.23 0.23 0.23 0.26 0.31 0.32 0.37 0.39 0.46 0.53 0.58 0.60 0.63 0.66 0.70 0.77 0.86 0.98 1.02 1.01 1.02 1.03 1.02 1.01 0.98 1.02 1.11 1.19 1.25 1.28 1.30 1.33 1.33 1.33 1.33 1.34 1.34 1.34 1.32 1.28 1.26 1.26 1.24 1.17 1.10 1.17 1.18 1.19 1.16 1.14 1.13 1.19 1.18 1.18 1.17 1.16 1.16
0.16 0.20 0.25 0.25 0.25 0.23 0.21 0.22 0.21 0.19 0.17 0.19 0.18 0.16 0.15 0.16 0.16 0.16 0.16 0.17 0.17 0.18 0.20 0.20 0.19 0.17 0.18 0.18 0.20 0.23 0.24 0.23 0.23 0.30 0.39 0.44 0.53 0.60 0.66 0.68 0.68 0.63 0.63 0.67 0.76 0.86 0.96 1.00 1.01 1.01 1.01 1.03 0.98 0.95 1.00 1.09 1.20 1.26 1.27 1.31 1.34 1.33 1.33 1.35 1.35 1.35 1.34 1.30 1.24 1.24 1.22 1.20 1.14 1.16 1.12 1.08 1.04 1.05 1.07 1.08 1.09 1.11 1.16 1.14 1.12 1.12
0.20 0.25 0.28 0.26 0.25 0.24 0.22 0.20 0.20 0.19 0.16 0.17 0.18 0.17 0.17 0.17 0.16 0.16 0.17 0.17 0.16 0.15 0.21 0.20 0.14 0.13 0.17 0.19 0.20 0.22 0.23 0.20 0.21 0.25 0.32 0.41 0.48 0.56 0.56 0.57 0.64 0.69 0.74 0.74 0.77 0.86 0.97 1.00 1.00 0.98 0.97 0.95 0.93 0.95 1.03 1.13 1.23 1.28 1.29 1.31 1.35 1.34 1.35 1.33 1.34 1.35 1.31 1.23 1.15 1.09 1.03 0.96 0.96 0.92 0.93 0.88 0.86 0.90 0.92 0.93 1.02 1.07 1.09 1.08 1.08 1.08
0.23 0.29 0.29 0.26 0.24 0.23 0.23 0.21 0.23 0.22 0.18 0.16 0.15 0.19 0.18 0.17 0.16 0.15 0.15 0.18 0.15 0.14 0.22 0.25 0.16 0.12 0.17 0.18 0.21 0.24 0.23 0.19 0.21 0.24 0.34 0.42 0.47 0.50 0.51 0.55 0.58 0.62 0.69 0.80 0.86 0.91 0.91 0.95 0.96 0.93 0.89 0.86 0.88 0.99 1.10 1.18 1.25 1.28 1.30 1.32 1.33 1.33 1.33 1.34 1.33 1.35 1.30 1.20 1.14 1.07 0.99 0.95 0.90 0.85 0.90 0.96 0.97 0.94 0.94 0.96 0.97 1.00 1.04 1.04 1.01 1.00
0.25 0.26 0.27 0.27 0.25 0.23 0.22 0.19 0.21 0.21 0.18 0.15 0.20 0.20 0.19 0.17 0.16 0.17 0.19 0.19 0.19 0.24 0.25 0.25 0.23 0.16 0.13 0.18 0.22 0.28 0.23 0.20 0.22 0.27 0.36 0.42 0.45 0.48 0.52 0.56 0.57 0.63 0.70 0.74 0.80 0.86 0.89 0.94 0.89 0.84 0.82 0.86 0.95 1.08 1.15 1.20 1.25 1.25 1.28 1.32 1.33 1.34 1.34 1.33 1.33 1.32 1.30 1.18 1.10 1.05 1.00 0.97 0.92 0.89 0.88 0.94 0.95 0.98 0.96 0.95 0.98 1.01 1.02 1.01 0.99 0.95
0.26 0.24 0.24 0.23 0.23 0.22 0.19 0.23 0.25 0.24 0.20 0.19 0.23 0.23 0.21 0.20 0.20 0.21 0.21 0.21 0.21 0.20 0.16 0.20 0.24 0.17 0.15 0.19 0.25 0.29 0.23 0.20 0.23 0.31 0.39 0.45 0.46 0.48 0.51 0.55 0.60 0.66 0.71 0.76 0.80 0.84 0.87 0.88 0.89 0.89 0.88 0.95 1.05 1.13 1.15 1.19 1.23 1.27 1.29 1.33 1.34 1.34 1.35 1.34 1.33 1.29 1.28 1.20 1.09 1.05 1.01 0.96 0.98 0.98 0.95 0.96 0.97 0.94 0.97 0.96 1.00 1.02 1.02 1.00 0.99 0.98
0.27 0.26 0.26 0.25 0.23 0.20 0.23 0.25 0.24 0.24 0.21 0.24 0.26 0.25 0.24 0.23 0.23 0.24 0.22 0.22 0.22 0.19 0.14 0.16 0.21 0.16 0.15 0.20 0.23 0.30 0.28 0.22 0.25 0.33 0.42 0.48 0.50 0.51 0.54 0.58 0.64 0.70 0.76 0.82 0.88 0.90 0.91 0.93 0.92 0.95 1.00 1.01 1.09 1.16 1.20 1.22 1.25 1.26 1.28 1.30 1.31 1.33 1.35 1.35 1.33 1.30 1.25 1.19 1.11 1.04 1.00 0.95 0.95 0.97 0.94 0.95 0.93 0.94 0.97 0.95 0.96 1.00 1.01 0.99 0.96 0.96
0.31 0.31 0.29 0.25 0.22 0.23 0.24 0.25 0.25 0.25 0.25 0.28 0.26 0.23 0.23 0.22 0.22 0.24 0.24 0.23 0.21 0.16 0.14 0.17 0.21 0.19 0.15 0.20 0.25 0.25 0.27 0.33 0.32 0.37 0.46 0.53 0.55 0.57 0.60 0.61 0.63 0.69 0.75 0.80 0.88 0.94 0.96 1.01 0.99 1.00 1.01 1.04 1.08 1.15 1.18 1.19 1.21 1.24 1.25 1.28 1.28 1.33 1.36 1.36 1.32 1.29 1.22 1.16 1.13 1.06 1.00 0.95 0.92 0.90 0.89 0.89 0.91 0.94 0.94 0.92 0.94 0.96 0.96 0.96 0.93 0.94
0.28 0.29 0.27 0.26 0.27 0.27 0.26 0.24 0.26 0.27 0.27 0.26 0.24 0.23 0.22 0.21 0.23 0.22 0.22 0.23 0.17 0.13 0.14 0.19 0.20 0.21 0.14 0.17 0.24 0.35 0.47 0.47 0.41 0.37 0.43 0.48 0.51 0.54 0.58 0.62 0.67 0.73 0.77 0.83 0.89 0.93 0.99 1.01 0.97 0.99 1.00 1.01 1.04 1.09 1.12 1.16 1.18 1.20 1.24 1.28 1.27 1.32 1.35 1.35 1.33 1.28 1.21 1.15 1.13 1.08 1.00 0.93 0.92 0.88 0.89 0.87 0.89 0.91 0.89 0.92 0.92 0.94 0.93 0.92 0.94 0.95
0.24 0.25 0.28 0.28 0.31 0.28 0.26 0.24 0.25 0.27 0.27 0.25 0.24 0.23 0.19 0.19 0.18 0.16 0.18 0.15 0.15 0.12 0.16 0.21 0.22 0.19 0.17 0.21 0.33 0.41 0.45 0.50 0.51 0.48 0.49 0.53 0.56 0.56 0.60 0.65 0.70 0.77 0.81 0.84 0.88 0.96 1.01 0.99 0.95 0.96 0.96 0.97 1.00 1.02 1.09 1.13 1.15 1.19 1.23 1.26 1.25 1.25 1.31 1.30 1.29 1.24 1.20 1.17 1.11 1.04 0.97 0.93 0.92 0.91 0.90 0.90 0.91 0.92 0.91 0.93 0.91 0.90 0.88 0.91 0.91 0.93
0.22 0.26 0.26 0.26 0.27 0.29 0.28 0.22 0.22 0.22 0.25 0.24 0.23 0.22 0.19 0.16 0.15 0.14 0.15 0.17 0.15 0.16 0.19 0.18 0.24 0.19 0.23 0.27 0.38 0.40 0.49 0.55 0.56 0.54 0.56 0.60 0.61 0.61 0.63 0.68 0.72 0.78 0.82 0.84 0.91 1.00 1.02 0.98 0.99 0.99 0.96 0.98 1.01 1.05 1.10 1.13 1.14 1.20 1.24 1.28 1.27 1.29 1.29 1.28 1.24 1.19 1.18 1.16 1.10 1.04 0.98 0.96 0.95 0.94 0.91 0.92 0.93 0.95 0.96 0.94 0.89 0.88 0.88 0.89 0.91 0.89
0.17 0.16 0.19 0.22 0.20 0.26 0.26 0.25 0.25 0.24 0.25 0.25 0.27 0.25 0.22 0.20 0.16 0.14 0.15 0.13 0.14 0.15 0.18 0.24 0.18 0.17 0.18 0.23 0.47 0.51 0.55 0.59 0.59 0.55 0.58 0.65 0.69 0.71 0.73 0.75 0.78 0.81 0.83 0.88 0.95 0.97 0.97 0.94 0.94 0.96 0.98 1.00 1.02 1.05 1.09 1.12 1.14 1.18 1.21 1.23 1.27 1.29 1.28 1.25 1.19 1.16 1.14 1.13 1.10 1.04 1.01 0.99 0.99 0.96 0.93 0.97 1.00 0.98 0.95 0.92 0.88 0.89 0.92 0.92 0.94 0.91
0.21 0.19 0.24 0.26 0.25 0.26 0.25 0.28 0.29 0.27 0.25 0.27 0.28 0.28 0.23 0.21 0.23 0.17 0.18 0.17 0.16 0.17 0.17 0.20 0.19 0.30 0.26 0.47 0.55 0.61 0.63 0.60 0.61 0.58 0.60 0.63 0.71 0.75 0.75 0.76 0.79 0.83 0.86 0.93 0.97 1.00 1.00 1.00 0.98 0.98 1.00 1.00 1.00 1.02 1.06 1.08 1.11 1.15 1.21 1.25 1.28 1.28 1.30 1.27 1.21 1.16 1.15 1.15 1.12 1.05 1.03 1.01 1.02 1.01 0.99 1.01 1.02 1.01 0.98 0.92 0.90 0.90 0.93 0.96 0.96 0.95
0.22 0.19 0.26 0.26 0.27 0.26 0.27 0.29 0.29 0.29 0.20 0.25 0.25 0.21 0.23 0.28 0.24 0.21 0.21 0.22 0.20 0.18 0.16 0.28 0.25 0.31 0.44 0.43 0.50 0.57 0.57 0.58 0.59 0.60 0.61 0.67 0.74 0.81 0.83 0.88 0.91 0.95 0.97 1.00 1.00 1.02 1.08 1.01 0.99 1.01 1.03 1.02 1.02 1.01 1.03 1.05 1.09 1.13 1.18 1.21 1.25 1.27 1.26 1.26 1.23 1.18 1.17 1.19 1.14 1.06 1.06 1.03 1.03 1.01 0.98 0.98 0.98 0.99 0.98 0.96 0.95 0.93 0.94 0.97 0.98 0.95
0.22 0.21 0.26 0.24 0.22 0.27 0.30 0.30 0.30 0.30 0.29 0.26 0.21 0.24 0.30 0.31 0.28 0.21 0.16 0.19 0.16 0.14 0.16 0.23 0.22 0.25 0.25 0.22 0.44 0.49 0.48 0.52 0.57 0.60 0.64 0.70 0.75 0.75 0.77 0.80 0.86 0.93 0.97 1.12 1.18 1.17 1.15 1.07 1.03 1.04 1.07 1.06 1.04 1.03 1.04 1.08 1.10 1.14 1.19 1.22 1.24 1.25 1.23 1.25 1.25 1.22 1.19 1.19 1.15 1.08 1.07 1.05 1.04 1.01 1.00 1.01 1.00 1.00 0.96 0.98 0.97 0.96 0.94 0.96 0.97 0.96
0.30 0.22 0.26 0.27 0.25 0.27 0.32 0.31 0.28 0.30 0.32 0.26 0.25 0.31 0.23 0.20 0.18 0.21 0.18 0.14 0.13 0.12 0.14 0.21 0.25 0.26 0.28 0.27 0.37 0.40 0.43 0.48 0.56 0.63 0.66 0.64 0.65 0.67 0.74 0.83 0.90 0.92 0.94 1.00 1.06 1.06 1.12 1.11 1.06 1.08 1.07 1.08 1.08 1.06 1.06 1.09 1.12 1.12 1.18 1.25 1.28 1.25 1.28 1.28 1.28 1.26 1.24 1.23 1.17 1.11 1.08 1.04 1.03 1.04 1.06 1.07 1.04 1.01 0.94 0.96 0.96 0.95 0.96 0.98 0.98 0.95
0.33 0.23 0.25 0.29 0.26 0.28 0.28 0.29 0.22 0.25 0.30 0.31 0.31 0.28 0.31 0.25 0.24 0.21 0.20 0.20 0.17 0.14 0.14 0.16 0.22 0.20 0.30 0.33 0.40 0.42 0.48 0.52 0.56 0.60 0.64 0.68 0.71 0.74 0.75 0.83 0.89 0.94 0.97 1.04 1.06 1.05 1.11 1.08 1.07 1.08 1.08 1.07 1.07 1.07 1.08 1.09 1.12 1.14 1.18 1.25 1.24 1.28 1.31 1.27 1.26 1.22 1.22 1.20 1.16 1.11 1.10 1.06 1.06 1.09 1.11 1.07 1.00 0.94 0.91 0.94 0.96 0.97 0.97 0.99 1.00 0.95
0.30 0.32 0.22 0.28 0.31 0.29 0.22 0.29 0.27 0.28 0.25 0.25 0.24 0.24 0.25 0.26 0.30 0.27 0.27 0.22 0.19 0.16 0.16 0.16 0.15 0.20 0.29 0.42 0.43 0.46 0.53 0.57 0.59 0.60 0.64 0.66 0.74 0.80 0.83 0.84 0.88 0.92 0.99 1.03 1.04 1.05 1.07 1.10 1.11 1.12 1.13 1.13 1.13 1.13 1.11 1.11 1.10 1.13 1.17 1.18 1.19 1.23 1.22 1.23 1.25 1.19 1.12 1.15 1.14 1.13 1.11 1.07 1.05 1.08 1.11 1.05 0.95 0.88 0.90 0.93 0.96 0.98 1.00 1.02 0.98 0.95
0.32 0.32 0.26 0.29 0.26 0.25 0.28 0.36 0.36 0.34 0.32 0.28 0.26 0.23 0.24 0.23 0.21 0.18 0.18 0.28 0.25 0.20 0.17 0.16 0.14 0.22 0.34 0.51 0.50 0.52 0.58 0.60 0.64 0.64 0.63 0.68 0.73 0.78 0.83 0.87 0.90 0.92 0.96 1.00 1.06 1.08 1.05 1.06 1.09 1.15 1.17 1.17 1.13 1.10 1.09 1.11 1.12 1.10 1.10 1.13 1.14 1.14 1.09 1.09 1.12 1.10 1.09 1.12 1.14 1.13 1.12 1.08 1.06 1.08 1.09 1.01 0.92 0.89 0.91 0.93 0.97 1.00 1.01 1.00 0.98 0.93
0.40 0.38 0.32 0.27 0.27 0.28 0.33 0.38 0.41 0.41 0.39 0.36 0.33 0.28 0.31 0.27 0.25 0.21 0.16 0.20 0.25 0.24 0.26 0.24 0.18 0.21 0.42 0.53 0.55 0.57 0.61 0.63 0.66 0.66 0.65 0.69 0.74 0.77 0.88 0.94 0.97 0.97 0.99 1.00 1.01 1.03 1.05 1.07 1.07 1.11 1.16 1.16 1.12 1.10 1.08 1.07 1.06 1.07 1.09 1.12 1.17 1.18 1.15 1.16 1.19 1.20 1.18 1.14 1.12 1.13 1.14 1.11 1.06 1.07 1.06 1.01 0.96 0.96 0.95 0.96 0.98 1.00 0.99 0.99 0.94 0.87
0.48 0.35 0.30 0.30 0.33 0.34 0.38 0.40 0.40 0.40 0.38 0.34 0.34 0.36 0.32 0.27 0.26 0.23 0.22 0.25 0.24 0.26 0.23 0.23 0.18 0.24 0.44 0.57 0.58 0.60 0.64 0.67 0.69 0.69 0.68 0.72 0.75 0.77 0.87 0.96 0.96 0.92 0.95 0.99 1.02 1.04 1.04 1.04 1.06 1.08 1.10 1.12 1.10 1.09 1.08 1.07 1.06 1.07 1.09 1.11 1.14 1.14 1.15 1.17 1.18 1.19 1.17 1.16 1.15 1.14 1.14 1.11 1.08 1.06 1.05 1.02 1.02 1.00 1.00 1.00 1.00 1.00 0.99 0.96 0.88 0.77
0.37 0.39 0.33 0.29 0.26 0.27 0.30 0.33 0.33 0.37 0.37 0.33 0.33 0.36 0.37 0.35 0.32 0.30 0.30 0.32 0.23 0.26 0.25 0.22 0.18 0.24 0.44 0.56 0.58 0.59 0.61 0.63 0.65 0.70 0.73 0.71 0.74 0.74 0.80 0.90 0.93 0.94 0.94 0.94 0.97 0.99 1.01 1.04 1.04 1.04 1.06 1.06 1.06 1.08 1.09 1.08 1.07 1.08 1.10 1.12 1.13 1.14 1.15 1.14 1.18 1.18 1.21 1.19 1.19 1.15 1.13 1.11 1.11 1.09 1.07 1.05 1.05 1.04 1.05 1.05 1.03 1.01 0.98 0.92 0.83 0.76
0.42 0.40 0.35 0.26 0.22 0.18 0.17 0.18 0.20 0.24 0.29 0.34 0.37 0.37 0.37 0.33 0.30 0.27 0.21 0.24 0.21 0.26 0.27 0.23 0.21 0.30 0.46 0.54 0.55 0.58 0.60 0.61 0.66 0.71 0.76 0.78 0.78 0.81 0.86 0.89 0.91 0.89 0.92 0.93 0.93 0.95 0.95 0.99 1.04 1.03 1.05 1.08 1.06 1.05 1.05 1.08 1.12 1.14 1.13 1.13 1.15 1.14 1.14 1.13 1.14 1.14 1.17 1.19 1.15 1.14 1.13 1.12 1.11 1.08 1.07 1.07 1.06 1.06 1.08 1.07 1.04 1.02 0.99 0.92 0.83 0.78
0.41 0.44 0.40 0.36 0.31 0.27 0.27 0.29 0.34 0.36 0.34 0.28 0.32 0.35 0.36 0.37 0.35 0.31 0.28 0.23 0.20 0.24 0.24 0.27 0.28 0.31 0.37 0.45 0.48 0.53 0.57 0.58 0.61 0.68 0.71 0.73 0.77 0.81 0.85 0.82 0.84 0.92 0.92 0.90 0.89 0.92 0.94 0.96 0.99 1.03 1.04 1.07 1.05 1.04 1.04 1.07 1.12 1.17 1.16 1.14 1.17 1.19 1.19 1.18 1.15 1.13 1.12 1.11 1.06 1.10 1.12 1.12 1.10 1.10 1.10 1.09 1.09 1.10 1.10 1.09 1.06 1.05 1.01 0.94 0.88 0.83
0.41 0.37 0.40 0.40 0.40 0.41 0.41 0.37 0.40 0.38 0.32 0.35 0.33 0.34 0.38 0.37 0.36 0.32 0.28 0.25 0.32 0.25 0.21 0.31 0.35 0.32 0.37 0.44 0.48 0.51 0.55 0.59 0.64 0.68 0.71 0.74 0.74 0.75 0.77 0.81 0.83 0.87 0.89 0.88 0.87 0.89 0.90 0.91 0.95 0.97 1.05 1.07 1.03 1.05 1.06 1.09 1.14 1.16 1.17 1.16 1.18 1.20 1.20 1.21 1.19 1.18 1.17 1.15 1.14 1.14 1.15 1.11 1.13 1.13 1.14 1.13 1.12 1.14 1.15 1.14 1.12 1.10 1.07 0.99 0.90 0.86
0.39 0.35 0.42 0.41 0.41 0.45 0.45 0.43 0.43 0.40 0.38 0.37 0.37 0.36 0.35 0.38 0.36 0.32 0.33 0.35 0.33 0.26 0.23 0.31 0.37 0.34 0.41 0.47 0.52 0.54 0.58 0.62 0.65 0.68 0.72 0.75 0.76 0.77 0.78 0.79 0.79 0.82 0.86 0.88 0.89 0.90 0.90 0.92 0.94 0.95 0.99 1.02 1.02 1.03 1.06 1.09 1.12 1.16 1.18 1.20 1.21 1.23 1.19 1.19 1.19 1.16 1.14 1.13 1.11 1.11 1.14 1.15 1.16 1.18 1.17 1.16 1.14 1.13 1.15 1.14 1.13 1.13 1.12 1.06 0.96 0.89
0.42 0.38 0.43 0.44 0.41 0.43 0.45 0.45 0.44 0.40 0.39 0.38 0.37 0.38 0.39 0.38 0.37 0.37 0.37 0.39 0.37 0.34 0.35 0.37 0.39 0.39 0.47 0.51 0.55 0.59 0.63 0.64 0.66 0.70 0.73 0.73 0.73 0.75 0.76 0.75 0.77 0.79 0.81 0.81 0.84 0.87 0.88 0.88 0.90 0.91 0.91 0.95 0.98 1.02 1.05 1.05 1.07 1.10 1.11 1.13 1.16 1.17 1.20 1.21 1.18 1.15 1.13 1.12 1.13 1.15 1.15 1.16 1.18 1.18 1.19 1.17 1.11 1.11 1.15 1.12 1.11 1.12 1.11 1.08 1.02 0.92
0.40 0.38 0.45 0.44 0.39 0.39 0.44 0.47 0.46 0.43 0.40 0.36 0.39 0.39 0.40 0.40 0.40 0.41 0.41 0.42 0.44 0.41 0.43 0.42 0.40 0.38 0.50 0.58 0.59 0.62 0.63 0.65 0.65 0.64 0.67 0.70 0.71 0.73 0.74 0.73 0.73 0.75 0.77 0.80 0.83 0.85 0.85 0.86 0.88 0.89 0.90 0.92 0.96 0.99 0.99 0.99 1.01 1.04 1.04 1.06 1.08 1.10 1.13 1.15 1.10 1.11 1.14 1.12 1.13 1.15 1.16 1.16 1.16 1.14 1.12 1.12 1.14 1.14 1.13 1.13 1.12 1.11 1.10 1.07 1.02 0.94
0.42 0.40 0.46 0.42 0.35 0.36 0.42 0.43 0.43 0.44 0.42 0.40 0.39 0.40 0.39 0.38 0.36 0.39 0.37 0.44 0.39 0.37 0.42 0.42 0.38 0.39 0.49 0.58 0.60 0.60 0.60 0.60 0.60 0.62 0.64 0.65 0.68 0.69 0.69 0.69 0.71 0.76 0.78 0.82 0.81 0.83 0.84 0.84 0.86 0.87 0.88 0.88 0.91 0.95 0.97 0.96 1.00 1.01 1.01 1.02 1.03 1.03 1.08 1.09 1.07 1.06 1.06 1.08 1.10 1.11 1.10 1.10 1.08 1.10 1.10 1.09 1.10 1.11 1.12 1.12 1.11 1.10 1.10 1.09 1.04 0.98
0.41 0.39 0.37 0.38 0.33 0.33 0.42 0.44 0.43 0.42 0.40 0.35 0.36 0.41 0.43 0.42 0.43 0.44 0.46 0.48 0.47 0.47 0.39 0.35 0.38 0.52 0.55 0.59 0.55 0.54 0.56 0.58 0.59 0.61 0.62 0.65 0.67 0.69 0.68 0.68 0.70 0.71 0.73 0.77 0.81 0.82 0.84 0.84 0.85 0.88 0.89 0.91 0.90 0.92 0.94 0.96 0.97 0.96 0.98 0.99 0.99 1.01 1.02 1.01 1.01 1.01 1.01 1.01 1.01 1.01 1.03 1.06 1.07 1.03 1.01 1.06 1.09 1.09 1.09 1.07 1.06 1.06 1.06 1.05 1.03 0.99
0.41 0.39 0.36 0.40 0.30 0.34 0.40 0.42 0.44 0.37 0.27 0.30 0.47 0.52 0.49 0.44 0.44 0.41 0.41 0.45 0.49 0.50 0.45 0.50 0.52 0.57 0.59 0.58 0.56 0.55 0.57 0.58 0.61 0.64 0.68 0.68 0.67 0.68 0.69 0.69 0.70 0.71 0.73 0.76 0.79 0.84 0.84 0.86 0.86 0.89 0.89 0.89 0.90 0.91 0.93 0.94 0.92 0.91 0.93 0.94 0.94 0.94 0.92 0.92 0.91 0.91 0.91 0.92 0.92 0.92 0.95 0.98 0.98 0.99 0.98 0.97 1.00 1.02 1.01 0.99 0.98 0.99 1.01 1.01 0.99 0.94
0.38 0.38 0.35 0.37 0.30 0.28 0.36 0.38 0.31 0.24 0.28 0.46 0.54 0.56 0.56 0.54 0.52 0.48 0.48 0.50 0.51 0.54 0.54 0.52 0.53 0.55 0.57 0.60 0.60 0.61 0.62 0.63 0.66 0.66 0.67 0.69 0.69 0.69 0.69 0.70 0.72 0.73 0.75 0.78 0.81 0.83 0.85 0.86 0.85 0.86 0.87 0.86 0.87 0.87 0.89 0.88 0.87 0.86 0.86 0.87 0.86 0.86 0.85 0.84 0.83 0.83 0.84 0.85 0.84 0.85 0.88 0.88 0.89 0.87 0.91 0.94 0.94 0.93 0.91 0.90 0.92 0.93 0.94 0.94 0.93 0.90
0.38 0.36 0.37 0.33 0.35 0.35 0.31 0.29 0.19 0.22 0.40 0.47 0.51 0.54 0.57 0.57 0.55 0.52 0.47 0.51 0.54 0.54 0.56 0.53 0.54 0.56 0.58 0.60 0.62 0.63 0.63 0.64 0.65 0.67 0.67 0.68 0.70 0.70 0.70 0.71 0.72 0.73 0.74 0.77 0.80 0.81 0.81 0.81 0.83 0.83 0.85 0.87 0.86 0.85 0.85 0.84 0.83 0.82 0.80 0.81 0.80 0.79 0.79 0.78 0.78 0.78 0.79 0.79 0.79 0.80 0.81 0.82 0.82 0.84 0.86 0.87 0.88 0.87 0.85 0.85 0.86 0.87 0.88 0.88 0.89 0.88
0.41 0.39 0.36 0.30 0.37 0.26 0.29 0.28 0.27 0.39 0.37 0.41 0.43 0.47 0.50 0.46 0.48 0.46 0.38 0.46 0.55 0.58 0.57 0.56 0.56 0.58 0.59 0.61 0.62 0.62 0.64 0.64 0.61 0.62 0.69 0.71 0.71 0.73 0.73 0.73 0.74 0.74 0.77 0.78 0.79 0.80 0.82 0.82 0.83 0.84 0.85 0.86 0.86 0.86 0.85 0.85 0.84 0.82 0.80 0.80 0.79 0.78 0.76 0.75 0.75 0.74 0.74 0.74 0.75 0.74 0.75 0.75 0.76 0.77 0.79 0.80 0.80 0.80 0.81 0.81 0.81 0.82 0.82 0.81 0.82 0.82
0.44 0.35 0.39 0.30 0.31 0.35 0.28 0.26 0.27 0.27 0.23 0.32 0.43 0.53 0.58 0.58 0.57 0.57 0.50 0.45 0.58 0.61 0.62 0.59 0.57 0.59 0.59 0.59 0.60 0.64 0.66 0.59 0.53 0.56 0.65 0.72 0.73 0.72 0.73 0.74 0.76 0.78 0.78 0.77 0.77 0.79 0.80 0.82 0.83 0.83 0.81 0.82 0.82 0.84 0.85 0.86 0.86 0.86 0.83 0.81 0.81 0.78 0.77 0.76 0.75 0.74 0.73 0.74 0.74 0.74 0.75 0.74 0.74 0.74 0.75 0.75 0.76 0.76 0.77 0.77 0.78 0.78 0.80 0.77 0.77 0.76
0.40 0.40 0.39 0.33 0.32 0.32 0.29 0.25 0.24 0.22 0.27 0.40 0.44 0.49 0.55 0.57 0.58 0.59 0.48 0.39 0.55 0.61 0.62 0.62 0.59 0.59 0.60 0.60 0.62 0.64 0.60 0.51 0.50 0.56 0.63 0.68 0.69 0.72 0.72 0.74 0.74 0.75 0.75 0.73 0.72 0.72 0.73 0.76 0.78 0.79 0.81 0.81 0.80 0.82 0.83 0.83 0.83 0.82 0.83 0.83 0.82 0.82 0.81 0.79 0.77 0.76 0.77 0.77 0.78 0.77 0.77 0.76 0.76 0.76 0.75 0.75 0.74 0.73 0.72 0.72 0.73 0.73 0.74 0.74 0.74 0.75
0.34 0.34 0.34 0.30 0.29 0.30 0.28 0.25 0.24 0.30 0.29 0.39 0.46 0.49 0.53 0.57 0.61 0.52 0.31 0.33 0.54 0.60 0.61 0.61 0.59 0.59 0.60 0.60 0.61 0.60 0.55 0.50 0.53 0.59 0.68 0.70 0.72 0.73 0.73 0.72 0.74 0.74 0.74 0.74 0.73 0.72 0.72 0.71 0.70 0.70 0.70 0.71 0.74 0.78 0.80 0.81 0.80 0.79 0.78 0.79 0.80 0.79 0.78 0.80 0.81 0.82 0.82 0.81 0.81 0.80 0.79 0.78 0.76 0.76 0.75 0.74 0.74 0.73 0.72 0.71 0.69 0.68 0.67 0.67 0.68 0.68
0.29 0.31 0.32 0.28 0.29 0.30 0.28 0.28 0.31 0.32 0.41 0.45 0.47 0.51 0.54 0.58 0.53 0.35 0.27 0.40 0.56 0.60 0.62 0.62 0.61 0.61 0.61 0.60 0.61 0.56 0.60 0.62 0.64 0.68 0.71 0.72 0.70 0.70 0.72 0.74 0.73 0.72 0.70 0.70 0.68 0.70 0.69 0.69 0.68 0.68 0.68 0.68 0.68 0.68 0.69 0.71 0.72 0.73 0.74 0.75 0.76 0.76 0.75 0.77 0.77 0.76 0.76 0.77 0.77 0.78 0.78 0.78 0.77 0.75 0.75 0.76 0.76 0.75 0.73 0.70 0.68 0.67 0.66 0.65 0.64 0.62
0.29 0.32 0.33 0.32 0.29 0.27 0.30 0.27 0.28 0.33 0.43 0.49 0.52 0.53 0.57 0.48 0.32 0.31 0.47 0.58 0.59 0.60 0.62 0.63 0.61 0.61 0.60 0.60 0.60 0.61 0.64 0.68 0.70 0.70 0.68 0.68 0.68 0.69 0.70 0.71 0.71 0.70 0.70 0.69 0.68 0.66 0.64 0.65 0.67 0.68 0.69 0.69 0.67 0.66 0.65 0.65 0.65 0.66 0.67 0.67 0.68 0.70 0.74 0.74 0.74 0.74 0.73 0.73 0.73 0.73 0.73 0.73 0.73 0.72 0.71 0.71 0.70 0.69 0.69 0.72 0.72 0.70 0.68 0.66 0.64 0.61
0.30 0.28 0.27 0.27 0.31 0.30 0.30 0.27 0.26 0.22 0.40 0.50 0.51 0.50 0.54 0.39 0.41 0.51 0.54 0.57 0.60 0.61 0.61 0.61 0.62 0.61 0.61 0.59 0.62 0.63 0.63 0.64 0.65 0.64 0.63 0.62 0.61 0.61 0.62 0.64 0.65 0.67 0.67 0.66 0.65 0.65 0.63 0.61 0.60 0.61 0.63 0.65 0.66 0.67 0.66 0.64 0.63 0.63 0.63 0.62 0.64 0.67 0.68 0.68 0.68 0.68 0.69 0.69 0.69 0.69 0.68 0.68 0.67 0.67 0.68 0.68 0.68 0.67 0.66 0.67 0.66 0.66 0.65 0.64 0.63 0.62
0.35 0.27 0.27 0.29 0.34 0.26 0.26 0.24 0.25 0.37 0.47 0.54 0.50 0.40 0.49 0.51 0.56 0.57 0.55 0.53 0.59 0.61 0.61 0.61 0.61 0.60 0.61 0.61 0.60 0.61 0.61 0.60 0.60 0.60 0.57 0.56 0.56 0.56 0.55 0.56 0.56 0.58 0.60 0.61 0.61 0.62 0.62 0.59 0.60 0.61 0.61 0.62 0.63 0.63 0.63 0.62 0.60 0.61 0.61 0.62 0.67 0.68 0.67 0.66 0.66 0.65 0.64 0.64 0.65 0.65 0.66 0.66 0.66 0.66 0.65 0.65 0.64 0.63 0.62 0.62 0.62 0.61 0.61 0.60 0.58 0.57
0.33 0.28 0.30 0.26 0.37 0.31 0.29 0.33 0.42 0.47 0.49 0.53 0.53 0.52 0.54 0.58 0.59 0.58 0.57 0.55 0.55 0.57 0.63 0.61 0.60 0.61 0.61 0.61 0.61 0.60 0.58 0.58 0.56 0.55 0.52 0.51 0.51 0.51 0.50 0.51 0.51 0.51 0.52 0.52 0.53 0.56 0.57 0.56 0.56 0.58 0.60 0.62 0.62 0.61 0.61 0.60 0.59 0.58 0.57 0.61 0.63 0.63 0.63 0.63 0.62 0.62 0.61 0.61 0.61 0.61 0.61 0.61 0.61 0.60 0.60 0.60 0.59 0.56 0.55 0.54 0.54 0.52 0.53 0.52 0.50 0.49
0.35 0.35 0.37 0.32 0.32 0.40 0.43 0.43 0.46 0.46 0.48 0.49 0.52 0.54 0.53 0.55 0.58 0.59 0.57 0.55 0.56 0.59 0.61 0.60 0.61 0.60 0.60 0.62 0.59 0.59 0.58 0.56 0.54 0.51 0.51 0.51 0.50 0.50 0.49 0.48 0.48 0.50 0.50 0.51 0.52 0.52 0.52 0.54 0.54 0.54 0.54 0.56 0.60 0.61 0.61 0.59 0.57 0.54 0.55 0.58 0.58 0.58 0.58 0.58 0.57 0.56 0.56 0.56 0.56 0.56 0.57 0.56 0.55 0.55 0.55 0.54 0.53 0.51 0.50 0.48 0.47 0.46 0.46 0.45 0.44 0.43
0.29 0.30 0.28 0.24 0.30 0.28 0.23 0.37 0.38 0.39 0.43 0.46 0.48 0.51 0.53 0.54 0.54 0.56 0.56 0.57 0.57 0.58 0.59 0.60 0.60 0.60 0.61 0.61 0.59 0.57 0.56 0.56 0.54 0.53 0.53 0.52 0.51 0.49 0.48 0.47 0.47 0.48 0.48 0.49 0.51 0.53 0.52 0.52 0.51 0.51 0.52 0.51 0.54 0.56 0.57 0.57 0.56 0.55 0.55 0.54 0.54 0.54 0.53 0.52 0.51 0.50 0.50 0.50 0.50 0.50 0.50 0.50 0.49 0.48 0.48 0.47 0.46 0.46 0.45 0.45 0.43 0.42 0.40 0.40 0.39 0.38
0.20 0.30 0.22 0.23 0.24 0.22 0.23 0.31 0.34 0.37 0.38 0.40 0.41 0.43 0.44 0.49 0.52 0.54 0.55 0.56 0.57 0.58 0.59 0.59 0.60 0.58 0.59 0.57 0.56 0.55 0.54 0.55 0.54 0.53 0.52 0.51 0.49 0.49 0.48 0.49 0.49 0.50 0.50 0.51 0.52 0.53 0.52 0.52 0.51 0.51 0.51 0.51 0.53 0.54 0.54 0.54 0.53 0.53 0.52 0.51 0.51 0.50 0.49 0.48 0.47 0.46 0.46 0.46 0.46 0.45 0.46 0.45 0.45 0.44 0.43 0.43 0.43 0.42 0.42 0.42 0.42 0.40 0.39 0.38 0.37 0.36
0.24 0.26 0.17 0.22 0.20 0.24 0.27 0.28 0.29 0.32 0.34 0.36 0.38 0.40 0.41 0.43 0.45 0.48 0.51 0.52 0.53 0.53 0.54 0.56 0.57 0.56 0.56 0.55 0.56 0.55 0.54 0.54 0.55 0.54 0.53 0.52 0.51 0.50 0.49 0.49 0.50 0.51 0.52 0.52 0.53 0.53 0.51 0.51 0.51 0.51 0.51 0.52 0.54 0.54 0.53 0.52 0.52 0.52 0.51 0.51 0.50 0.50 0.47 0.46 0.46 0.46 0.45 0.45 0.43 0.43 0.43 0.43 0.42 0.41 0.41 0.41 0.41 0.42 0.42 0.41 0.40 0.39 0.39 0.41 0.41 0.39
0.22 0.17 0.23 0.22 0.16 0.16 0.17 0.21 0.26 0.20 0.20 0.29 0.33 0.36 0.38 0.41 0.43 0.44 0.46 0.47 0.49 0.49 0.51 0.51 0.54 0.57 0.58 0.58 0.57 0.56 0.54 0.54 0.54 0.54 0.52 0.52 0.51 0.51 0.51 0.51 0.51 0.52 0.52 0.53 0.53 0.53 0.52 0.52 0.51 0.50 0.50 0.51 0.53 0.53 0.53 0.52 0.53 0.53 0.53 0.52 0.51 0.50 0.47 0.46 0.45 0.44 0.43 0.43 0.42 0.42 0.41 0.41 0.41 0.41 0.41 0.41 0.40 0.39 0.40 0.43 0.43 0.41 0.39 0.38 0.39 0.39
0.19 0.20 0.21 0.17 0.17 0.16 0.22 0.26 0.28 0.27 0.28 0.31 0.33 0.36 0.38 0.40 0.40 0.37 0.36 0.37 0.39 0.42 0.44 0.44 0.43 0.44 0.45 0.46 0.49 0.47 0.47 0.48 0.49 0.50 0.49 0.49 0.49 0.49 0.49 0.48 0.46 0.46 0.47 0.49 0.48 0.49 0.49 0.49 0.50 0.50 0.50 0.50 0.52 0.51 0.51 0.50 0.51 0.51 0.51 0.51 0.50 0.48 0.46 0.45 0.43 0.43 0.43 0.42 0.41 0.41 0.41 0.40 0.39 0.40 0.39 0.39 0.38 0.38 0.36 0.35 0.38 0.40 0.40 0.39 0.38 0.37
Wind_Speed
17 17 18 18 17 16 17 17 16 15 14 14 15 15 16 16 16 14 15 17 16 17 19 19 19 20 20 20 20 21 22 23 23 22 23 23 23 22 21 20 20 19 19 18 17 16 15 14 12 13 12 7 5 5 8 12 12 13 15 15 15 15 15 14 14 14 14 14 13 12 12 11 11 10 10 10 9 9 9 8 8 7 7 7 7 7
17 18 19 18 18 18 17 16 15 15 15 15 16 17 17 17 16 15 16 18 16 17 19 18 18 20 21 21 20 20 21 22 24 23 24 25 24 23 21 20 19 18 19 18 18 17 17 17 14 14 14 10 7 5 5 8 10 10 12 13 14 15 15 14 14 14 14 14 13 12 12 11 11 11 11 10 9 9 9 8 7 7 7 7 7 6
16 18 19 19 18 17 15 15 15 15 16 15 15 16 17 16 16 16 15 15 14 16 18 17 18 21 21 20 19 20 21 23 25 26 26 26 25 23 22 21 20 19 18 18 18 17 18 18 15 14 14 12 9 6 5 7 8 9 10 11 13 14 15 14 14 15 14 14 14 13 12 12 11 11 11 10 10 9 9 8 8 7 7 7 7 7
16 18 19 18 18 16 16 16 14 15 16 16 16 16 17 16 15 15 15 13 14 16 17 17 18 19 19 18 18 19 21 22 25 26 25 25 25 24 23 22 21 20 19 18 17 18 18 18 16 14 14 14 11 8 6 7 7 8 9 11 12 13 14 14 14 15 14 14 14 13 12 12 12 11 11 10 9 9 9 8 8 8 8 7 7 7
18 17 16 15 16 16 17 16 15 15 16 17 17 17 17 16 16 17 15 14 15 15 16 16 16 17 16 15 16 17 18 20 21 22 21 22 23 22 22 22 21 21 19 18 18 18 18 18 17 15 14 14 13 11 9 9 8 8 10 11 12 12 14 14 15 15 14 14 14 13 12 12 12 11 11 10 10 9 9 9 8 8 8 7 7 7
19 18 15 13 14 15 15 15 15 15 15 16 16 17 18 17 17 17 15 13 13 13 14 13 13 15 14 13 15 15 15 16 17 18 19 20 21 21 21 21 21 21 20 19 18 18 19 18 17 16 15 14 13 13 12 12 10 10 12 12 12 13 14 14 15 15 14 14 15 14 14 13 13 12 11 11 10 10 9 9 8 8 7 7 7 7
16 16 16 15 15 14 14 15 15 14 13 14 14 15 17 17 17 16 14 13 14 14 14 12 12 15 14 13 14 14 13 14 14 16 18 19 20 21 21 21 20 20 19 19 19 19 19 19 18 17 16 14 13 13 13 13 12 12 13 14 13 13 14 14 15 15 15 15 15 15 15 15 14 13 12 11 10 10 9 9 8 8 7 7 7 7
14 14 15 15 14 14 14 14 14 12 11 12 12 11 12 14 15 14 13 14 15 15 15 13 13 15 14 14 14 13 11 12 12 15 17 18 19 20 20 20 20 20 19 19 19 19 20 19 19 18 16 13 12 12 13 13 13 13 14 14 14 14 15 15 15 15 16 16 16 15 16 15 14 13 12 11 10 10 9 9 8 8 7 7 7 7
13 14 15 14 14 14 14 13 13 11 11 12 11 10 11 12 13 13 13 14 14 14 15 15 13 13 14 14 13 11 10 11 12 14 16 18 19 19 19 19 20 19 18 19 19 19 20 20 19 17 15 13 11 10 11 11 12 13 14 15 15 14 15 15 15 16 16 16 16 16 16 16 15 13 12 11 10 10 9 9 9 8 8 7 7 7
13 14 15 14 14 14 14 12 12 12 11 11 9 9 9 10 11 11 12 13 13 13 16 16 14 13 13 13 12 9 9 11 12 13 15 17 17 17 18 18 19 18 18 19 19 19 20 20 18 16 14 13 12 10 9 9 10 11 13 14 15 14 14 14 16 17 17 17 16 16 17 16 15 14 12 11 10 10 9 9 9 9 8 8 7 7
13 13 14 14 14 14 13 12 13 13 12 10 8 8 9 10 10 11 12 12 11 14 16 16 15 14 13 12 11 10 10 11 11 12 14 15 16 17 17 17 18 18 19 19 19 20 21 19 17 15 13 13 13 11 10 9 10 11 13 14 15 15 14 14 15 17 18 17 16 17 17 17 16 14 13 12 11 10 10 10 9 9 8 8 8 8
13 13 14 15 15 14 13 13 13 13 12 10 9 9 9 10 10 10 11 11 11 14 14 15 15 15 14 13 12 11 11 12 12 12 14 15 15 16 17 17 18 19 20 20 20 21 21 19 17 15 14 13 13 13 12 11 11 12 13 14 15 15 15 15 16 17 18 17 17 17 17 16 16 14 13 13 12 11 11 10 10 9 8 8 8 8
14 15 14 14 15 15 13 13 12 11 10 10 10 9 9 9 9 10 11 11 12 14 13 13 13 14 16 15 13 12 12 12 12 13 14 15 15 16 16 17 19 20 20 20 21 21 21 19 17 16 15 13 13 13 12 12 13 13 14 15 16 15 16 16 17 18 19 18 17 17 17 17 16 15 14 13 13 12 11 10 10 9 8 8 8 8
14 14 14 13 14 15 14 13 12 10 10 10 10 10 9 9 8 10 11 10 11 13 13 13 14 14 14 14 14 14 13 13 13 14 15 15 15 16 16 17 19 20 21 21 21 21 21 20 17 15 14 13 12 13 12 12 13 14 14 16 16 16 16 17 17 18 19 18 18 18 18 17 16 15 14 14 13 12 12 11 10 9 8 8 8 7
12 12 13 13 13 13 14 14 13 11 11 11 11 11 11 11 10 10 11 11 11 11 11 12 13 14 14 13 12 13 14 13 13 13 14 14 15 16 16 18 19 21 21 22 23 23 22 20 18 15 13 12 12 12 12 13 14 14 14 15 16 16 16 17 18 18 19 19 18 18 18 18 17 16 15 14 14 13 12 11 10 9 8 7 7 6
12 13 14 13 12 13 13 14 12 10 11 13 12 11 12 12 11 10 11 11 10 10 10 11 13 14 14 14 13 11 12 12 11 12 13 13 14 14 15 17 19 21 23 23 24 24 22 20 18 15 13 12 11 11 11 13 13 14 14 15 16 17 17 18 18 19 19 19 19 18 18 18 17 16 15 15 14 13 12 10 10 9 8 7 7 6
11 13 13 12 13 14 15 14 13 12 13 12 12 13 13 12 11 10 10 9 8 9 11 11 12 13 13 14 13 11 11 11 11 11 12 12 12 12 13 13 16 19 21 21 22 22 20 18 16 15 13 12 11 11 11 12 13 14 14 15 16 17 18 19 19 19 19 19 19 19 19 18 17 16 16 15 14 13 12 10 10 9 8 8 7 7
12 13 13 12 13 15 15 14 13 13 13 12 13 14 12 11 10 10 9 8 7 10 11 10 11 13 12 13 13 12 11 11 10 11 11 11 11 12 12 12 14 17 17 17 19 20 18 16 15 13 12 12 11 11 11 11 12 14 15 16 17 18 19 19 20 20 20 20 19 19 19 18 17 16 15 15 14 13 12 11 10 9 9 8 8 8
12 12 13 13 14 14 13 13 12 12 12 13 13 12 10 10 11 11 10 9 9 10 11 10 11 13 14 14 13 12 12 11 11 11 10 10 11 11 11 12 15 17 18 18 18 17 16 14 13 12 12 11 11 11 12 12 12 13 15 16 18 19 19 20 20 20 20 20 19 19 18 17 17 16 16 15 14 13 12 12 11 10 9 9 9 8
13 12 12 12 14 13 12 12 13 13 12 12 12 12 11 11 11 11 10 10 10 10 10 10 10 12 15 15 14 13 12 11 11 11 11 10 11 11 10 11 13 15 18 19 17 16 15 12 11 12 12 11 11 11 12 12 13 13 14 16 17 18 18 18 17 18 18 18 18 18 17 17 17 16 16 15 14 13 13 12 11 10 10 9 9 8
13 12 13 13 12 12 12 13 13 14 13 12 13 14 13 12 11 11 10 10 9 9 10 10 10 12 13 14 13 13 12 11 11 11 11 11 11 12 12 12 13 14 16 17 17 16 14 12 11 12 12 12 13 12 13 13 13 13 14 14 15 15 16 15 15 15 16 16 17 17 17 17 17 16 15 14 14 13 12 12 11 10 10 9 9 9
14 13 13 12 11 11 13 14 13 13 13 13 13 14 14 13 12 11 11 11 10 9 10 10 10 12 12 12 13 12 11 11 11 11 11 11 10 11 13 13 12 11 12 13 13 12 12 11 12 13 13 14 14 14 14 14 13 14 14 15 14 14 15 15 14 14 15 16 16 17 17 17 16 16 15 14 14 13 13 12 11 10 10 9 9 9
14 13 13 13 12 13 14 15 13 12 12 12 12 12 13 13 13 12 12 12 11 10 10 9 10 12 12 12 12 11 11 11 10 10 10 10 11 11 13 12 10 8 9 10 10 10 11 11 12 13 14 14 14 14 15 15 15 15 15 16 15 15 15 15 14 14 15 16 17 17 17 16 16 16 15 14 14 14 13 12 12 11 10 10 10 10
14 13 13 13 13 13 14 14 13 12 10 10 11 11 12 13 14 13 13 12 11 11 10 9 10 11 11 11 12 11 10 9 9 10 10 10 11 10 9 9 8 7 8 9 9 9 10 10 11 12 13 13 14 14 14 15 15 15 16 16 16 16 16 16 15 15 16 16 17 18 17 16 16 16 15 15 14 14 14 13 12 12 11 11 10 10
14 14 14 13 12 12 12 13 13 12 11 11 11 11 11 12 12 13 13 11 11 12 11 10 10 11 10 10 12 11 10 8 9 9 9 9 9 9 7 7 7 7 7 8 8 8 9 10 11 12 13 13 13 14 14 14 15 15 15 16 16 16 16 17 16 16 15 16 17 17 17 16 16 16 16 15 15 15 15 14 13 12 11 11 11 11
13 13 14 14 13 14 13 13 14 14 13 12 12 11 10 10 11 13 13 12 12 13 12 11 12 11 10 10 11 11 9 8 8 8 8 7 8 8 8 8 8 8 8 8 8 8 8 9 10 11 13 13 13 14 14 14 14 14 15 15 16 16 16 17 17 16 16 16 16 16 16 16 16 17 16 16 15 15 15 14 14 13 12 11 11 11
11 12 13 14 14 15 15 15 15 14 13 13 13 11 11 11 11 11 11 12 13 13 13 14 13 11 11 11 11 11 9 9 9 8 6 6 6 6 6 6 6 6 7 7 7 7 7 8 8 9 11 13 13 13 14 15 14 14 14 14 15 15 15 16 16 16 16 16 15 15 15 15 16 17 16 16 16 15 14 14 15 14 13 12 12 11
10 11 12 13 14 15 16 15 14 13 13 13 13 12 12 12 10 9 10 12 12 12 13 15 13 12 12 12 11 10 10 9 9 7 6 5 5 4 4 3 3 4 6 6 7 7 6 7 7 8 9 12 12 12 14 15 14 13 13 14 14 14 14 15 15 15 15 15 16 16 15 15 16 16 17 17 16 16 15 15 15 15 14 14 13 12
11 11 12 12 12 13 14 14 13 12 12 13 12 12 13 12 11 10 11 12 11 11 14 14 12 12 12 11 10 10 10 9 8 7 6 5 5 4 4 3 2 3 4 5 6 6 6 7 7 7 8 10 11 11 12 13 13 13 13 13 14 14 14 14 15 14 14 15 15 16 16 16 17 17 17 18 17 17 17 17 17 17 16 15 14 13
11 11 11 12 11 11 12 12 12 11 12 12 12 12 13 13 12 11 12 12 11 12 13 12 11 12 12 11 10 9 9 8 7 6 6 5 5 4 4 3 2 3 3 4 5 6 7 7 7 8 9 10 10 11 12 12 12 12 12 12 12 12 13 14 14 13 13 13 14 14 15 16 17 17 17 17 17 17 17 16 15 15 15 14 13 13
11 11 11 11 11 11 12 12 12 11 11 11 11 12 12 13 13 13 13 13 13 12 11 10 11 12 13 11 9 9 9 8 7 6 5 5 5 4 4 3 3 3 4 4 5 7 7 7 8 9 10 10 10 10 11 11 11 11 10 10 10 11 12 12 12 11 11 12 12 12 13 13 14 14 14 14 14 14 14 14 14 14 14 14 13 13
12 11 11 10 10 12 13 13 13 13 12 12 11 11 12 13 14 14 14 14 14 13 11 11 12 13 13 11 10 10 9 7 6 6 6 5 5 4 4 4 3 4 4 4 5 6 7 7 8 8 9 10 10 10 10 10 11 10 10 10 10 10 11 10 9 8 9 9 10 10 11 11 11 11 11 12 12 13 13 13 13 13 14 13 13 13
11 11 11 9 9 11 12 12 13 13 13 14 14 14 14 15 15 15 15 14 15 15 14 13 13 13 13 12 11 10 9 8 8 7 6 6 6 5 5 5 4 5 5 5 5 5 7 7 7 8 9 9 9 9 9 10 10 10 9 9 9 9 9 8 8 7 7 7 7 8 9 9 9 9 10 11 12 12 12 13 13 13 14 14 14 14
9 10 10 9 8 8 9 9 9 11 12 14 15 16 16 15 15 14 14 14 15 15 15 14 13 12 12 12 11 10 10 9 8 7 7 7 7 7 6 6 6 6 6 7 6 7 7 7 8 8 9 9 9 9 9 9 9 9 9 8 8 8 8 8 8 8 7 7 7 7 7 8 9 9 9 10 10 11 11 12 12 13 13 14 14 14
10 9 10 9 8 7 7 6 6 8 10 11 13 14 15 15 15 14 14 13 13 13 13 13 13 13 12 11 11 11 10 9 8 7 8 8 9 8 7 8 8 7 7 8 8 8 8 8 9 9 9 10 10 9 9 9 9 9 8 8 7 7 8 8 8 7 7 7 6 6 7 7 8 8 9 9 9 10 10 11 12 12 13 14 14 15
11 10 10 10 9 8 7 6 6 8 9 9 9 11 12 14 14 15 15 13 13 14 13 12 12 13 13 12 12 12 10 9 8 8 9 10 11 10 9 9 10 9 9 9 9 10 9 8 8 9 9 9 8 8 8 9 8 8 8 7 7 7 7 7 7 7 7 7 6 6 7 7 7 8 8 9 9 10 10 10 11 12 13 14 14 15
11 11 11 11 10 10 8 7 7 8 8 8 8 8 10 12 13 14 15 14 14 15 14 13 13 14 14 14 14 14 12 9 9 10 10 11 11 11 10 10 10 9 9 10 10 10 10 9 8 9 8 8 8 8 8 8 7 7 7 7 7 6 6 6 6 7 7 7 7 7 7 8 8 8 8 9 10 10 10 11 11 12 13 14 14 15
11 12 12 11 11 10 10 8 7 7 8 8 8 8 9 10 12 12 13 13 13 14 14 14 13 14 15 15 15 15 13 11 13 14 12 11 12 11 10 10 9 8 8 9 10 10 10 9 9 9 8 8 8 8 8 8 7 7 7 7 7 6 6 6 6 7 7 7 8 8 9 9 9 9 10 10 11 11 12 12 13 13 14 14 15 15
9 10 11 10 10 11 10 9 8 7 8 9 9 9 8 9 10 10 10 10 11 11 13 13 12 13 14 15 15 15 13 13 14 15 13 13 12 12 11 10 8 8 9 10 10 10 10 9 9 9 8 8 8 8 8 8 8 8 8 8 8 8 7 7 7 8 8 9 9 10 10 10 11 11 11 12 12 13 13 14 14 15 16 16 17 17
8 9 9 9 9 10 10 9 8 8 7 8 9 9 9 8 8 7 8 9 9 9 11 12 11 11 12 13 13 13 13 14 14 14 13 12 10 10 10 10 9 9 8 9 10 11 10 10 9 8 8 7 7 8 8 8 8 9 9 9 9 9 9 8 8 8 9 10 10 11 12 12 13 13 14 14 15 15 15 16 17 18 18 19 20 20
7 7 7 8 8 8 8 8 8 9 8 8 9 10 9 7 7 7 7 8 8 9 10 11 10 9 10 11 11 12 12 12 13 13 13 12 10 9 10 10 10 9 8 8 9 10 11 10 10 8 8 8 8 8 8 9 9 9 10 10 10 10 10 11 10 10 10 11 12 12 13 14 15 15 16 16 17 18 19 19 20 21 21 22 22 23
5 5 5 6 7 7 7 7 8 9 9 8 9 9 8 7 8 8 8 8 8 9 10 9 9 9 8 8 10 11 11 12 13 13 13 12 11 10 10 11 11 9 9 9 9 9 10 10 10 9 9 9 9 9 9 9 9 10 11 11 11 11 12 13 13 14 14 14 15 15 15 16 17 17 18 19 20 21 21 22 23 23 24 25 25 26
4 4 4 5 6 7 6 6 7 8 8 9 9 9 8 7 8 8 8 7 7 9 10 9 9 9 9 9 9 11 12 13 14 14 14 13 13 12 11 12 11 10 10 10 10 10 10 10 10 10 10 10 10 10 10 10 10 10 11 11 12 13 14 15 15 16 16 17 18 18 18 19 20 21 21 22 23 23 24 24 25 26 26 27 28 28
3 4 4 5 6 6 6 5 6 7 7 8 7 8 8 8 9 8 8 7 8 9 9 9 9 10 11 11 10 10 11 13 14 14 14 14 13 12 12 12 12 12 12 12 12 11 11 10 10 10 10 10 10 11 11 11 11 12 12 13 14 15 16 17 17 18 18 19 19 20 21 22 22 23 23 24 24 25 25 26 26 27 28 29 29 30
2 3 4 4 5 5 5 6 6 6 6 6 6 6 7 7 7 7 7 7 8 9 10 10 10 10 11 11 11 10 11 12 13 13 13 13 12 12 11 11 12 12 13 13 12 12 12 12 11 11 11 11 11 12 12 13 13 13 14 15 17 18 18 19 19 19 20 20 21 21 22 22 23 24 24 25 25 26 26 27 28 28 29 30 30 31
2 2 3 4 4 4 4 5 6 6 6 5 5 5 5 6 6 6 6 6 7 9 9 10 11 11 10 11 11 11 12 13 13 13 12 12 12 12 11 11 12 12 13 13 13 14 14 13 13 13 12 12 13 13 14 14 15 15 16 17 18 18 19 19 19 19 20 20 21 22 22 23 23 24 25 25 26 27 27 28 29 29 30 31 31 32
1 1 2 3 4 4 5 5 6 6 7 6 5 5 5 5 6 6 6 6 7 8 9 10 11 11 11 11 11 12 13 14 13 13 13 13 13 13 13 12 12 13 14 14 15 15 15 14 14 14 14 14 15 15 15 16 16 16 17 17 18 18 18 18 19 19 20 20 21 22 22 23 24 25 25 26 26 27 28 28 29 30 31 31 32 33
1 0 1 2 3 3 5 6 6 6 6 6 6 6 5 5 5 6 6 7 7 7 8 9 10 10 11 11 12 12 13 13 13 14 14 15 15 15 15 14 14 14 15 16 16 16 16 16 16 16 16 16 16 16 16 17 17 17 18 18 18 19 19 19 20 20 21 22 22 23 24 24 25 25 26 26 27 28 28 29 29 30 31 31 32 33
1 1 2 2 2 3 4 5 5 4 5 6 6 6 6 6 7 7 7 7 7 8 8 9 9 10 11 12 12 12 13 13 14 14 15 15 15 16 16 15 15 15 16 16 17 17 17 17 17 17 18 18 18 18 18 18 19 19 19 20 20 21 21 21 22 22 23 23 24 24 25 26 26 27 27 28 28 29 29 30 31 31 32 32 33 34
2 1 1 2 2 3 5 5 5 5 5 6 7 6 7 8 8 8 9 9 9 10 11 11 12 12 13 13 14 14 14 15 15 16 16 16 16 17 17 17 16 17 17 17 18 18 18 18 19 19 19 19 20 20 20 20 21 21 21 21 22 22 23 23 24 24 25 25 25 26 27 27 27 28 28 29 30 30 30 31 32 32 33 33 34 35
2 1 2 2 2 4 5 5 5 4 5 7 7 7 8 8 9 9 10 10 11 12 13 13 14 14 15 16 16 17 17 17 18 17 17 18 18 18 18 19 19 19 19 19 19 19 20 20 20 20 20 21 21 21 21 22 22 22 22 23 23 23 24 24 25 25 26 26 27 27 27 28 28 29 29 30 30 30 31 32 32 32 33 34 34 35
Wind_Direction
232 235 238 236 236 236 238 238 239 243 246 248 253 256 256 258 257 247 245 248 246 250 252 248 250 252 250 248 243 237 235 235 235 236 235 234 234 234 232 230 228 228 228 228 228 227 229 229 220 213 215 224 233 228 221 216 219 221 220 220 218 214 214 213 210 207 207 206 206 206 206 204 204 206 207 207 206 204 204 205 204 207 210 211 214 217
234 235 238 235 233 235 237 238 239 245 250 254 255 259 260 257 256 252 249 249 245 247 250 249 253 254 251 249 245 239 237 238 235 234 235 234 233 232 228 225 225 226 227 227 227 227 229 228 224 221 219 224 238 246 231 218 221 219 212 211 209 207 209 210 208 205 204 204 203 202 201 202 203 204 203 201 200 199 199 199 200 204 208 210 212 215
238 239 237 234 233 235 240 241 242 247 251 253 254 257 259 256 257 258 253 250 245 245 249 253 256 255 253 251 246 240 238 240 236 232 233 231 229 228 224 221 222 222 223 224 224 226 229 226 223 225 223 224 234 242 238 227 221 214 205 202 201 202 203 205 206 205 204 203 202 202 202 202 202 200 197 196 197 197 197 198 201 206 210 214 217 219
237 240 236 233 232 235 243 244 242 249 253 252 251 253 256 256 256 255 253 253 250 247 248 253 258 254 252 252 249 244 243 244 240 234 232 230 225 222 220 219 219 219 219 221 221 225 229 225 223 227 227 228 234 238 231 221 214 208 202 196 195 197 199 202 204 203 203 202 202 204 204 202 199 195 193 195 198 198 199 202 204 207 210 214 219 223
235 238 234 231 232 233 240 244 242 247 254 254 250 249 253 253 250 248 251 257 257 252 246 249 258 255 249 251 252 253 252 250 243 234 230 227 222 220 219 219 219 220 219 219 219 223 227 225 224 227 229 231 235 237 231 223 216 211 206 200 198 200 200 202 202 201 202 202 203 204 205 203 198 194 195 198 200 201 203 205 207 208 210 215 221 226
238 237 230 228 233 233 237 243 241 240 250 258 253 246 247 248 248 248 249 253 256 255 248 246 252 251 248 249 254 260 260 253 241 228 222 219 216 215 216 217 219 220 220 219 219 221 224 225 225 228 232 235 238 239 235 230 226 221 217 212 208 207 206 204 204 204 203 203 204 204 203 201 198 196 198 200 201 203 204 206 208 210 212 218 223 228
239 233 228 228 231 232 236 243 241 234 244 259 254 243 241 242 244 245 242 241 244 246 249 247 243 247 252 254 258 262 259 250 235 222 219 216 213 212 214 216 216 216 216 218 220 220 221 224 225 228 233 238 242 241 235 233 232 228 223 219 214 212 212 209 207 207 205 204 204 204 201 199 198 198 200 202 202 203 205 206 209 213 216 221 224 227
234 228 228 228 228 231 236 240 236 229 237 252 252 240 235 235 237 238 234 235 242 247 253 252 241 245 251 252 258 261 253 244 231 222 221 217 214 213 213 214 214 212 214 217 218 217 218 221 224 227 231 238 242 239 235 235 234 228 223 220 216 213 213 212 209 207 206 205 204 202 200 200 200 201 202 203 203 205 206 208 212 217 220 224 226 228
229 226 226 223 226 231 230 229 226 224 236 246 247 242 236 231 230 232 232 238 246 249 253 252 241 240 246 249 258 258 243 235 230 228 224 217 214 212 211 212 211 211 213 214 214 214 216 220 223 226 229 234 236 234 233 234 232 227 221 218 215 212 211 211 208 205 204 203 202 202 200 200 201 202 202 203 205 206 209 212 216 219 223 228 232 234
233 230 224 220 224 227 224 224 220 219 234 244 244 246 246 240 236 235 236 241 246 244 244 245 238 237 245 248 254 250 233 228 230 230 223 215 212 210 210 210 209 211 212 212 212 214 217 220 224 227 228 228 228 229 229 227 225 220 215 211 209 207 206 206 204 203 202 202 203 202 200 200 201 202 204 205 205 208 210 214 217 220 226 233 239 240
240 236 229 225 224 222 221 227 223 219 231 246 250 251 252 250 245 244 244 242 243 243 242 241 235 235 242 244 242 236 227 225 229 228 220 213 210 209 210 209 208 210 211 211 213 217 220 222 224 226 226 225 226 227 226 224 219 213 210 207 205 205 204 203 202 202 202 202 202 201 200 200 202 203 205 205 206 208 211 213 216 222 229 236 241 243
243 237 233 231 225 220 223 232 234 233 238 247 253 248 244 248 246 247 250 243 238 243 244 241 235 231 234 237 236 234 231 228 226 224 218 214 210 209 211 210 209 210 211 211 215 219 220 221 222 224 224 225 228 228 227 225 219 214 211 209 206 206 205 203 203 202 201 201 201 201 201 202 203 205 206 207 207 209 211 213 218 223 229 236 241 244
241 235 234 233 227 220 222 234 243 245 241 239 242 237 234 242 242 243 247 242 239 244 244 239 233 231 233 235 235 236 237 232 225 221 220 218 214 210 211 211 210 211 211 212 216 219 218 218 221 222 223 228 231 227 224 221 219 215 213 211 208 207 205 204 204 202 201 202 203 203 204 204 205 206 207 208 209 210 213 216 219 223 229 235 239 242
242 241 235 229 229 222 216 225 236 239 233 228 230 224 222 229 234 242 246 246 248 249 246 237 231 233 237 236 235 237 240 238 232 225 220 220 218 214 215 214 212 213 213 213 215 215 215 215 218 220 225 231 229 222 217 215 216 216 214 212 208 205 205 204 203 202 203 205 205 205 206 206 207 208 209 211 212 212 215 218 220 225 231 234 236 240
234 239 231 221 225 221 216 221 226 229 230 230 230 224 224 225 227 238 241 241 247 249 247 237 228 228 231 232 233 234 237 238 235 227 218 221 224 221 220 217 215 216 215 213 214 213 213 215 215 218 224 226 219 215 213 211 213 214 213 211 208 204 203 203 202 202 203 205 205 205 205 205 207 209 212 215 215 214 215 219 222 227 230 231 233 237
230 235 231 225 224 217 217 224 224 226 233 235 232 229 233 231 229 238 238 235 239 243 244 236 230 229 229 231 232 232 234 232 230 225 218 222 229 227 225 225 226 224 218 216 215 211 211 213 212 213 217 215 210 211 211 208 208 210 209 209 208 205 203 203 203 202 203 204 204 204 203 204 207 210 213 215 216 216 217 220 223 226 228 228 232 237
230 235 235 233 229 221 221 226 225 226 230 232 230 230 235 232 225 232 240 243 239 239 242 236 232 237 235 233 232 232 234 229 225 223 219 223 232 233 235 238 236 229 224 223 217 209 207 208 208 209 212 211 208 207 207 205 207 208 208 208 207 206 204 204 205 204 203 203 203 203 203 204 208 211 214 215 215 216 217 219 223 225 227 231 238 244
228 235 238 234 231 230 226 225 230 232 225 225 231 232 233 232 230 230 238 251 245 239 243 238 234 235 231 230 233 232 231 231 230 225 219 223 230 235 241 243 235 226 223 221 211 204 201 200 203 206 208 209 207 206 204 204 209 211 211 211 209 206 204 205 206 206 204 202 201 202 203 206 209 212 214 215 215 217 217 219 224 227 230 237 243 248
229 237 245 236 231 236 232 225 234 242 233 226 228 228 227 229 234 234 234 241 242 241 246 245 239 233 227 228 231 230 230 233 236 233 230 233 235 239 246 249 243 233 225 218 210 205 199 195 199 202 201 203 203 205 205 205 209 211 213 214 211 207 205 206 207 205 202 200 200 202 204 206 209 211 213 215 216 219 219 221 226 230 234 240 245 249
230 233 241 239 232 234 234 228 232 237 235 231 227 229 233 230 228 231 231 234 234 236 243 245 244 237 230 228 228 230 234 235 236 237 239 241 243 246 247 246 245 236 225 219 213 207 200 197 201 200 199 201 201 203 206 207 210 211 212 213 209 204 202 201 201 199 197 197 199 202 203 205 207 208 211 215 218 220 221 224 230 234 238 243 247 251
231 228 233 239 237 232 230 229 227 224 224 226 227 229 234 233 230 233 236 237 231 231 235 238 242 241 234 230 230 232 237 237 234 235 239 243 246 247 245 241 241 236 224 214 208 204 202 202 203 202 204 206 205 205 206 206 207 207 208 209 205 201 199 198 198 197 195 196 199 200 202 204 206 207 211 215 218 220 222 227 232 236 239 243 248 252
226 225 227 236 239 233 233 231 226 224 223 224 226 227 230 230 228 230 238 240 234 232 232 230 239 244 237 232 232 232 235 237 234 234 241 246 241 242 247 244 241 235 218 206 201 203 209 210 208 208 209 209 208 209 208 207 205 205 204 205 204 203 201 200 201 200 199 200 200 200 202 204 205 208 212 216 219 222 226 230 234 237 239 242 246 251
225 224 227 233 235 234 237 233 228 228 228 229 231 229 229 230 226 225 232 236 233 234 236 234 241 246 240 234 232 231 232 234 233 233 238 240 234 241 249 239 228 223 215 211 213 214 218 217 210 207 207 207 207 207 208 209 208 207 205 205 205 203 200 202 205 204 205 205 204 203 204 207 208 211 215 219 222 225 227 231 235 238 240 242 246 251
230 230 230 235 240 240 239 234 229 226 225 229 235 234 231 231 228 225 228 231 229 230 233 236 244 247 242 236 233 231 229 231 235 233 235 239 239 248 252 229 215 217 218 221 225 222 221 220 213 208 206 207 207 206 207 208 207 206 205 206 207 206 204 206 208 208 209 208 207 206 208 210 212 215 219 222 225 226 228 231 233 236 240 244 248 252
232 232 228 229 235 238 237 235 233 231 228 229 233 239 239 234 229 228 231 233 233 232 228 228 241 246 239 233 234 233 230 234 243 241 239 241 241 247 249 228 219 221 215 216 220 219 221 221 217 214 210 208 207 205 204 204 203 204 204 206 208 208 208 209 209 211 213 211 209 209 211 214 217 220 223 225 226 228 231 233 234 235 240 245 248 252
229 229 226 222 223 225 227 231 230 229 232 233 233 240 244 239 232 230 231 233 236 238 234 231 240 245 237 230 231 232 231 234 241 244 244 239 234 236 232 221 222 222 214 216 219 218 222 221 216 215 211 207 206 205 202 199 198 199 201 204 206 208 208 209 211 213 215 214 212 212 215 219 222 223 224 225 226 228 232 235 235 237 241 245 246 249
227 231 229 223 224 227 227 230 231 227 227 231 236 241 244 246 244 235 232 234 234 237 241 240 240 239 233 229 228 229 231 234 237 242 245 239 236 234 222 212 213 210 206 212 216 216 218 216 213 214 211 206 202 201 199 197 196 198 200 202 205 208 209 210 211 213 215 216 216 218 222 224 224 224 225 226 226 227 232 236 236 237 241 243 244 246
229 235 233 227 232 235 233 234 235 230 226 228 234 240 245 249 250 238 233 235 233 234 243 245 240 234 231 229 227 227 227 230 234 239 240 234 229 226 220 210 196 193 203 209 208 207 204 201 203 204 201 197 193 192 193 193 193 196 199 201 204 207 209 209 210 214 217 218 219 222 225 226 225 226 227 228 230 232 236 240 240 240 241 242 243 244
230 235 233 229 234 237 235 236 235 230 228 229 232 238 245 248 246 238 237 241 238 235 240 242 237 234 233 228 227 228 224 223 226 229 229 227 222 219 220 209 185 185 194 188 186 189 183 178 181 180 179 181 181 181 183 184 188 193 197 200 203 207 210 211 214 219 222 223 224 226 228 229 229 230 232 236 238 239 242 245 245 243 241 240 241 242
231 235 233 228 232 236 238 238 235 230 231 236 238 241 246 248 245 242 242 245 244 239 240 240 235 239 242 234 229 228 222 219 222 223 221 222 224 222 210 198 195 196 189 179 178 181 178 174 172 165 163 169 173 177 180 183 189 196 199 202 206 210 213 214 217 220 222 224 226 228 229 230 232 235 238 240 239 239 241 243 242 239 237 237 239 241
231 231 233 231 233 241 245 243 240 235 231 236 244 249 251 250 247 247 245 245 247 242 241 241 237 240 246 239 227 224 222 220 223 224 223 226 230 221 200 191 199 204 205 202 190 183 183 186 182 171 165 167 172 178 184 188 192 197 201 204 208 210 210 211 213 216 220 222 224 226 228 228 229 233 236 235 232 232 235 236 235 234 234 235 236 239
231 227 233 235 234 241 245 246 247 243 235 237 246 253 255 248 244 247 246 246 248 242 236 239 237 237 240 234 226 228 230 229 233 236 236 236 235 225 211 212 218 215 214 214 203 194 191 193 191 183 177 175 176 180 185 188 187 188 192 195 198 198 200 205 210 212 214 216 217 221 224 225 226 229 231 230 229 230 231 232 233 235 235 234 235 237
230 226 231 234 235 240 245 246 247 245 241 242 245 248 249 244 242 246 246 247 250 244 239 242 240 235 234 230 226 230 235 238 244 248 244 236 229 222 220 227 235 232 223 218 214 205 194 190 190 186 181 178 176 177 182 183 181 183 186 188 192 195 198 205 209 209 209 210 212 216 220 223 225 227 228 228 228 229 232 234 236 236 234 234 235 238
227 224 227 231 230 237 247 248 242 240 241 243 244 246 247 245 244 245 244 249 251 245 240 243 242 237 237 235 230 228 230 234 239 242 240 234 226 222 222 229 235 234 228 224 220 208 193 181 176 174 172 172 172 173 176 177 178 183 188 190 194 197 200 205 209 211 212 213 215 218 220 221 220 221 224 224 224 228 233 237 238 236 236 236 239 243
221 222 225 225 223 226 237 243 238 241 244 243 245 248 248 246 245 242 239 246 250 243 237 239 240 240 240 238 230 223 222 226 231 238 241 236 230 224 224 232 236 233 228 224 218 208 196 181 173 170 167 167 169 172 176 178 182 187 191 193 195 195 196 197 200 205 208 209 212 216 217 217 217 220 223 225 226 231 237 240 240 239 241 243 245 249
220 225 227 224 222 222 230 238 241 246 250 248 250 253 249 246 247 243 239 243 248 244 238 235 237 238 236 231 225 219 215 217 230 242 242 236 233 230 227 232 238 235 228 221 210 202 197 188 181 178 175 174 174 175 179 184 189 193 193 192 192 193 196 195 196 201 206 208 213 218 219 220 222 224 227 229 232 237 242 244 244 245 247 249 251 252
223 227 230 229 227 223 225 233 240 246 251 253 255 255 250 246 245 243 240 242 244 240 236 233 234 235 233 228 224 221 218 222 238 247 241 231 229 227 225 230 237 235 226 215 203 196 193 189 184 183 185 185 183 183 186 190 193 195 196 195 193 192 196 198 199 205 210 214 219 225 228 230 232 233 235 237 239 241 244 245 246 248 250 252 254 255
228 229 229 230 231 228 224 230 241 248 252 254 254 254 250 247 245 240 238 242 242 236 230 228 229 230 228 224 224 226 227 232 239 240 234 225 223 224 228 231 230 224 215 206 198 191 187 186 186 188 190 187 186 191 193 191 190 191 195 200 201 200 203 209 215 218 221 226 231 235 238 239 240 242 244 245 247 248 249 249 249 251 252 254 256 257
234 233 230 231 234 231 224 229 238 241 244 250 254 258 261 256 246 237 234 240 243 235 225 219 220 222 219 218 224 230 231 232 233 232 228 225 225 228 228 220 209 203 203 202 200 195 191 189 189 193 196 195 199 207 206 202 202 201 203 208 211 209 212 221 231 234 236 240 244 245 245 247 249 251 252 253 253 254 254 254 254 255 257 259 260 260
237 237 234 231 231 230 228 230 236 237 239 247 255 263 268 258 239 229 232 240 242 233 222 214 213 217 219 221 228 235 234 229 225 220 216 214 216 218 213 204 197 195 195 197 198 197 196 197 197 201 206 207 211 218 216 213 212 212 215 220 219 218 221 228 236 240 240 243 247 250 252 254 256 258 259 260 260 260 260 260 261 262 262 263 264 264
229 231 229 223 225 233 232 228 233 238 240 246 257 263 262 246 230 225 230 238 238 227 217 213 215 222 229 229 229 231 227 216 206 202 202 204 205 205 202 199 196 195 197 200 201 198 200 203 206 210 215 216 219 223 224 221 216 215 220 223 223 227 232 236 242 245 246 248 251 254 257 258 258 260 261 262 262 263 263 265 266 266 266 267 267 268
218 224 231 227 229 236 232 225 232 238 240 254 265 260 244 229 228 231 234 237 230 214 207 211 218 222 223 222 217 212 205 197 195 197 200 203 204 204 203 201 199 200 205 210 208 204 205 209 212 216 219 223 226 229 229 225 219 219 224 228 231 237 241 244 248 252 254 256 258 260 261 262 263 264 265 266 266 266 266 267 267 268 268 269 270 270
215 219 233 237 233 233 232 231 234 237 250 270 270 250 232 228 233 234 234 232 221 207 203 210 215 211 204 200 198 197 195 195 198 200 203 206 209 211 212 210 209 213 220 222 220 217 214 216 221 224 226 229 230 231 231 229 227 230 235 239 244 248 251 253 256 259 261 262 264 265 265 266 267 268 269 269 269 268 268 269 269 269 270 271 272 272
228 222 228 241 240 234 232 234 233 238 258 274 263 241 237 241 239 233 226 221 216 208 204 206 210 208 200 193 191 195 200 202 203 205 209 212 214 216 218 218 218 222 229 232 229 225 222 221 223 227 231 234 236 238 240 242 243 246 249 252 256 259 261 261 262 264 265 267 267 268 268 268 269 269 269 269 269 270 270 271 271 271 272 272 273 274
235 225 222 235 241 231 222 225 232 242 256 263 250 239 240 239 235 226 217 214 216 213 207 203 203 206 205 199 196 201 206 205 205 207 211 215 218 221 225 228 229 229 232 234 233 231 230 229 228 229 233 236 239 242 246 249 252 254 258 261 264 266 266 266 266 267 268 269 269 270 269 269 270 270 270 271 271 271 272 273 273 273 274 274 274 275
227 234 230 236 242 238 232 236 244 250 255 254 245 237 231 226 225 221 213 215 221 218 212 205 201 205 209 205 202 206 208 206 207 211 214 218 223 227 230 235 238 238 237 238 239 239 240 239 240 242 244 246 249 251 252 255 256 258 261 265 268 269 268 268 268 268 269 270 271 271 271 271 272 272 273 273 274 274 275 275 275 276 276 276 276 276
257 250 241 246 248 243 244 255 262 260 258 256 247 236 227 222 223 221 215 216 219 217 213 208 204 207 211 208 206 210 213 211 212 217 220 223 228 231 234 238 242 244 243 242 243 244 245 246 248 250 252 254 256 257 258 260 261 262 264 266 267 268 268 269 269 270 271 272 273 274 274 274 275 276 276 276 277 277 277 277 277 277 277 277 277 277
290 306 276 271 263 245 244 257 265 261 257 257 250 241 236 228 224 224 221 217 215 215 214 212 210 211 213 212 212 214 217 219 220 221 225 229 232 236 240 243 246 248 247 246 246 247 248 249 250 252 254 255 257 259 261 262 264 266 266 267 268 269 270 271 272 274 275 275 276 277 277 277 277 278 277 278 278 278 278 278 278 278 278 278 277 278
327 331 304 291 290 277 266 264 265 263 263 262 255 248 245 237 229 229 230 225 222 219 218 219 219 217 215 216 218 219 222 225 227 227 229 233 236 240 243 246 249 250 250 250 250 250 251 251 252 253 255 257 258 261 263 265 266 267 268 270 271 272 273 274 275 276 276 277 278 278 278 278 278 278 278 278 279 279 279 278 278 279 279 279 279 279
7 357 323 321 313 289 272 260 257 260 260 258 257 256 253 245 237 236 238 237 235 232 229 230 232 231 229 229 230 230 231 232 233 234 236 238 240 242 245 247 250 252 253 253 253 254 254 254 254 255 256 258 260 262 264 266 268 269 270 272 273 275 275 276 277 277 277 278 279 279 279 279 279 278 278 279 279 280 280 279 279 279 280 280 281 281
15 347 310 312 303 286 270 255 255 264 261 257 257 259 258 253 246 243 243 244 243 241 239 238 239 240 242 243 242 240 239 238 238 239 241 243 245 247 250 252 254 257 258 259 258 259 260 260 259 259 259 260 261 262 264 267 268 270 271 273 275 276 276 276 277 277 277 278 279 279 279 279 279 279 279 280 280 281 282 282 281 281 281 282 282 283